ISS
1 25544U 98067A 09297.75735653 .00025914 00000-0 17156-3 0 8474
2 25544 051.6432 001.4349 0006330 241.9070 215.5703 15.75334268626369
CO-58
1 28895U 05043F 09296.72074216 .00000181 00000-0 47353-4 0 04259
2 28895 098.0383 183.6041 0017338 308.7696 051.2023 14.59806225212481
FALCON
1 30776U 07006E 09296.67795794 .00000497 00000-0 38909-4 0 06895
2 30776 035.4337 039.7844 0002173 318.9592 041.0960 15.03338298144444
MAST
1 31126U 07012K 09297.79726635 .00000099 00000-0 33094-4 0 7141
2 31126 097.9726 346.5581 0093627 237.3676 121.8595 14.53524673133860
CAPE1
1 31130U 07012P 09296.72344178 .00000080 00000-0 29525-4 0 7252
2 31130 097.9752 343.4389 0101790 246.9820 112.0608 14.52096394133347
COMPASS
1 32787U 08021E 09297.22644294 .00000463 00000-0 65496-4 0 4989
2 32787 097.9278 359.8616 0015311 337.1613 022.8906 14.81676761 80556
AAUSAT2
1 32788U 08021F 09296.84585674 .00000043 00000-0 12192-4 0 4926
2 32788 097.9290 359.5666 0014951 339.6446 020.4116 14.81801656 80508
DO-64
1 32789U 08021G 09297.74502076 .00000674 00000-0 91950-4 0 5089
2 32789 097.9329 000.7067 0015185 334.5189 025.5272 14.81826495 80631
CO-66
1 32791U 08021J 09297.82486167 .00000578 00000-0 80389-4 0 4900
2 32791 097.9302 000.4863 0015763 333.4297 026.6103 14.81496984 80604
RS-30
1 32953U 08025A 09296.73158952 .00000010 00000-0 00000-0 0 04360
2 32953 082.5044 176.6969 0018112 260.3567 099.5467 12.43003062064363
TACSAT-3
1 35001U 09028A 09296.88252877 .00003056 00000-0 81616-4 0 1263
2 35001 040.4547 190.7883 0022883 035.5837 324.6519 15.39381046 24180
PHARMSAT
1 35002U 09028B 09296.86983806 .00002865 00000-0 74906-4 0 1222
2 35002 040.4681 189.9522 0026441 039.7984 320.4776 15.40115725 24183
HAWKSAT1
1 35003U 09028C 09297.78085840 .00006760 00000-0 16355-3 0 1294
2 35003 040.4599 183.5241 0025950 050.1029 310.2120 15.41035834 24342
CP6
1 35004U 09028D 09297.77772542 .00007571 00000-0 18185-3 0 1223
2 35004 040.4594 183.5019 0025321 049.8265 310.5262 15.41148409 24332
AEROCUB3
1 35005U 09028E 09296.82542835 .00006122 00000-0 14947-3 0 01255
2 35005 040.4739 189.6749 0024974 040.5256 319.7544 15.40901194024186
DRAGNSAT
1 35690U 09038B 09296.59854224 .00037857 00000-0 16146-3 0 00833
2 35690 051.6421 002.0464 0005859 043.0098 317.1403 15.84796896013478
POLLUX
1 35693U 09038E 09296.63243241 .00031987 00000-0 14286-3 0 00844
2 35693 051.6408 002.2857 0005006 001.1004 359.0195 15.83921768013447
CASTOR
1 35694U 09038F 09297.50125984 .00018186 00000-0 90380-4 0 807
2 35694 051.6414 358.3576 0004777 002.8963 357.2711 15.82028126 13577
METEOR-M
1 35865U 09049A 09296.75569010 .00000176 00000-0 10000-3 0 368
2 35865 098.7953 346.8256 0001947 353.0423 007.0726 14.21826552 5121
STERKH-2
1 35866U 09049B 09297.72867789 .00000178 00000-0 10000-3 0 352
2 35866 098.7959 347.8289 0002833 340.2273 019.8779 14.22297362 5267
FREGAT-I
1 35867U 09049C 09296.67401183 .00002266 00000-0 10000-3 0 00471
2 35867 097.3685 346.0741 0010586 155.0057 205.1526 15.22735169005475
